EBBR

Brussels Airport

Airport
ICAO code
EBBR
IATA Code
BRU
Summary
ICAO Region
EUR
ICAO Territory
Location

Zaventem Diegem, Machelen,

Serving
Brussel
Elevation
184 ft
Coordinates
50° 53' 56" N , 4° 29' 9" E
KCC
Airport BS
Bird Strike
Metar
EBBR 151420Z 20018G30KT 9999 FEW047 17/08 Q1005 TEMPO 20015KT 4000 SHRA

Description

International airport serving the capital of Belgium.

Climatology

Temperate Marine climate/Oceanic climate (Köppen climate classification Cfb) - Moderately cool summer and comparatively warm winter.

Runways

Designator Length Width Surface Rops
2/20 2987 50 ASP Yes/Yes
07R/25L 3211 45 ASP Yes/Yes
07L/25R 3638 45 CON Yes/Yes

SKYbrary Partners:

Safety knowledge contributed by: